View from above orbital plane
|
View from above satellite
|
Ground track
|
The orbit data is extracted from the following two-line orbital elements,
1 25860U 99039A 21018.64964367 .00000010 00000-0 91046-5 0 9994
2 25860 98.1990 47.2142 0000745 97.8896 262.2398 14.76706195157362
Epoch (UTC): | 18 January 2021 15:35:29 |
Eccentricity: | 0.0000745 |
inclination: | 98.1990° |
perigee height: | 639 km |
apogee height: | 640 km |
right ascension of ascending node: | 47.2142° |
argument of perigee: | 97.8896° |
revolutions per day: | 14.76706195 |
mean anomaly at epoch: | 262.2398° |
orbit number at epoch: | 15736 |
The dashed part of the orbit path shows where the satellite is in the earth's shadow,
|
|